JQ1YUX-13 Weather Reports


Display with metric or nautical units.
time (UTC)temp
F
wind
direction
speed
MPH
gust
MPH
rain 1hr
in
rain 24hr
in
rain mn
in
humidity
%
barometer
mb
20260509184818 61 337 0.0 1.0 0.00 0.00 0.00 52 1018.1
20260509183319 61 26 0.0 1.0 0.00 0.00 0.00 51 1017.9
20260509181817 61 329 0.0 1.0 0.00 0.00 0.00 53 1017.7
20260509180318 61 348 0.0 0.0 0.00 0.00 0.00 53 1017.6
20260509174819 61 26 0.0 0.0 0.00 0.00 0.00 50 1017.5
20260509173317 62 26 0.0 0.0 0.00 0.00 0.00 50 1017.5
20260509171818 62 31 0.0 0.0 0.00 0.00 0.00 50 1017.4
20260509170317 62 346 1.0 1.0 0.00 0.00 0.00 50 1017.2
20260509164818 62 3 1.0 2.0 0.00 0.00 0.00 49 1017.2
20260509163318 63 15 2.0 3.0 0.00 0.00 0.00 49 1017.3
20260509161818 63 10 3.0 9.0 0.00 0.00 0.00 48 1017.3
20260509160317 63 348 2.0 5.0 0.00 0.00 0.00 48 1017.1
20260509154818 63 355 2.0 3.0 0.00 0.00 0.00 47 1017.0
20260509153319 64 13 5.0 7.0 0.00 0.00 0.00 46 1017.0
20260509151817 64 14 3.0 7.0 0.00 0.00 0.00 45 1017.1
20260509150318 64 41 2.0 2.0 0.00 0.00 0.00 44 1017.2
20260509144819 64 321 2.0 3.0 0.00 0.00 0.00 44 1017.0
20260509143317 65 23 3.0 3.0 0.00 0.00 0.00 43 1017.0
20260509141818 65 355 1.0 1.0 0.00 0.00 0.00 42 1016.7
20260509140319 66 6 3.0 5.0 0.00 0.00 0.00 41 1016.5
20260509134819 66 2 2.0 6.0 0.00 0.00 0.00 40 1016.3
20260509133317 66 9 1.0 5.0 0.00 0.00 0.00 38 1016.2
20260509131818 66 47 0.0 0.0 0.00 0.00 0.00 41 1016.1
20260509130319 66 318 1.0 2.0 0.00 0.00 0.00 40 1016.0
20260509124817 66 338 0.0 2.0 0.00 0.00 0.00 40 1015.9
20260509123318 65 298 0.0 0.0 0.00 0.00 0.00 44 1015.8
20260509121818 65 296 0.0 0.0 0.00 0.00 0.00 46 1015.9
20260509120318 65 295 0.0 0.0 0.00 0.00 0.00 43 1015.7
20260509114817 66 295 0.0 0.0 0.00 0.00 0.00 45 1015.6
20260509113317 66 295 0.0 0.0 0.00 0.00 0.00 42 1015.4
20260509111818 67 295 0.0 0.0 0.00 0.00 0.00 41 1015.2
20260509110318 67 296 0.0 0.0 0.00 0.00 0.00 40 1015.0
20260509104817 68 250 0.0 0.0 0.00 0.00 0.00 42 1014.9
20260509103317 69 282 0.0 0.0 0.00 0.00 0.00 39 1014.5
20260509101818 69 306 0.0 1.0 0.00 0.00 0.00 37 1014.2
20260509100319 70 293 1.0 3.0 0.00 0.00 0.00 37 1013.9
20260509094817 71 338 2.0 7.0 0.00 0.00 0.00 35 1013.7
20260509093318 71 14 3.0 5.0 0.00 0.00 0.00 34 1013.5
20260509091818 72 3 3.0 7.0 0.00 0.00 0.00 35 1013.2
20260509090317 72 20 2.0 5.0 0.00 0.00 0.00 34 1012.9
20260509084817 73 0 1.0 5.0 0.00 0.00 0.00 34 1012.7
20260509083318 73 4 9.0 12.0 0.00 0.00 0.00 33 1012.2
20260509081818 74 3 8.0 10.0 0.00 0.00 0.00 34 1012.1
20260509080317 74 19 8.0 14.0 0.00 0.00 0.00 34 1012.0
20260509074817 74 9 7.0 12.0 0.00 0.00 0.00 35 1011.8
20260509073318 75 4 5.0 8.0 0.00 0.00 0.00 35 1011.4
20260509071819 75 356 2.0 3.0 0.00 0.00 0.00 36 1011.1
20260509070317 75 4 5.0 7.0 0.00 0.00 0.00 36 1010.9
20260509064818 75 16 10.0 21.0 0.00 0.00 0.00 35 1010.4
20260509063318 75 349 3.0 7.0 0.00 0.00 0.00 37 1010.4
20260509061817 74 345 7.0 12.0 0.00 0.00 0.00 37 1010.5
20260509060318 74 354 6.0 12.0 0.00 0.00 0.00 38 1010.4
20260509054818 75 347 7.0 9.0 0.00 0.00 0.00 38 1010.3
20260509053318 74 11 8.0 13.0 0.00 0.00 0.00 39 1010.1
20260509051817 74 16 7.0 9.0 0.00 0.00 0.00 40 1010.2
20260509050318 75 10 8.0 12.0 0.00 0.00 0.00 39 1010.0
20260509044818 74 356 8.0 14.0 0.00 0.00 0.00 40 1009.9
20260509043317 73 29 12.0 18.0 0.00 0.00 0.00 40 1009.9
20260509041818 74 27 5.0 12.0 0.00 0.00 0.00 41 1010.0
20260509040317 74 7 7.0 10.0 0.00 0.00 0.00 42 1010.3
20260509034818 73 340 7.0 12.0 0.00 0.00 0.00 43 1010.3
20260509033318 74 21 8.0 14.0 0.00 0.00 0.00 43 1010.4
20260509031819 73 3 9.0 16.0 0.00 0.00 0.00 43 1010.5
20260509030317 73 10 5.0 12.0 0.00 0.00 0.00 43 1010.4
20260509024818 72 29 10.0 15.0 0.00 0.00 0.00 44 1010.3
20260509023318 73 10 8.0 13.0 0.00 0.00 0.00 42 1010.5
20260509021818 72 283 3.0 7.0 0.00 0.00 0.00 45 1010.2
20260509020317 72 16 7.0 14.0 0.00 0.00 0.00 43 1010.2
20260509014817 72 23 8.0 15.0 0.00 0.00 0.00 43 1010.3
20260509013318 71 335 9.0 18.0 0.00 0.00 0.00 44 1010.3
20260509011817 72 281 3.0 9.0 0.00 0.00 0.00 45 1010.2
20260509010318 72 307 3.0 8.0 0.00 0.00 0.00 44 1010.1
20260509004818 70 233 2.0 7.0 0.00 0.00 0.00 45 1009.9
20260509003319 70 267 2.0 6.0 0.00 0.00 0.00 43 1009.7
20260509001818 71 284 2.0 6.0 0.00 0.00 0.00 43 1009.7
20260509000318 71 320 2.0 3.0 0.00 0.00 0.00 41 1009.3
20260508234819 71 278 2.0 2.0 0.00 0.00 0.00 41 1009.1
20260508233317 70 347 2.0 3.0 0.00 0.00 0.00 38 1009.0
20260508231818 70 292 2.0 7.0 0.00 0.00 0.00 40 1008.8
20260508230318 69 332 1.0 2.0 0.00 0.00 0.00 40 1008.4
20260508224817 68 301 2.0 5.0 0.00 0.00 0.00 43 1008.2
20260508223318 68 341 2.0 2.0 0.00 0.00 0.00 45 1008.0
20260508221818 66 347 1.0 5.0 0.00 0.00 0.00 44 1007.7
20260508220318 65 292 1.0 2.0 0.00 0.00 0.00 46 1007.5
20260508214817 64 23 0.0 2.0 0.00 0.00 0.00 47 1007.4
20260508213317 64 24 1.0 3.0 0.00 0.00 0.00 45 1007.2
20260508211818 64 348 1.0 2.0 0.00 0.00 0.00 46 1006.9
20260508210318 64 340 1.0 1.0 0.00 0.00 0.00 45 1006.6
20260508204819 64 340 0.0 0.0 0.00 0.00 0.00 46 1006.2
20260508203317 64 343 1.0 3.0 0.00 0.00 0.00 43 1005.9
20260508201818 64 38 2.0 6.0 0.00 0.00 0.00 45 1005.7
20260508200318 64 34 1.0 5.0 0.00 0.00 0.00 45 1005.5
20260508194818 64 326 0.0 0.0 0.00 0.00 0.00 47 1005.2
20260508193319 65 342 0.0 0.0 0.00 0.00 0.00 45 1005.0
20260508191818 65 30 3.0 6.0 0.00 0.00 0.00 45 1004.7
20260508190317 65 10 6.0 12.0 0.00 0.00 0.00 46 1004.5